| time (UTC) | temp F | wind direction | speed knots | gust knots | rain 1hr in | rain 24hr in | rain mn in | humidity % | barometer mb |
| 20260504050504 | 40 | 253 | 0.0 | 0.0 | 0.00 | 0.00 | 0.00 | 78 | 1012.7 |
| 20260504050004 | 41 | 253 | 0.0 | 0.0 | 0.00 | 0.00 | 0.00 | 78 | 1012.7 |
| 20260504045504 | 41 | 253 | 0.0 | 0.0 | 0.00 | 0.00 | 0.00 | 77 | 1012.7 |
| 20260504044505 | 41 | 253 | 0.0 | 0.0 | 0.00 | 0.00 | 0.00 | 77 | 1012.7 |
| 20260504043504 | 41 | 253 | 0.0 | 0.0 | 0.00 | 0.00 | 0.00 | 76 | 1012.6 |
| 20260504043004 | 41 | 253 | 0.0 | 0.0 | 0.00 | 0.00 | 0.00 | 76 | 1012.6 |
| 20260504042504 | 42 | 253 | 0.0 | 0.0 | 0.00 | 0.00 | 0.00 | 76 | 1012.6 |
| 20260504041504 | 42 | 253 | 0.0 | 0.0 | 0.00 | 0.00 | 0.00 | 75 | 1012.5 |
| 20260504040005 | 43 | 253 | 0.0 | 0.0 | 0.00 | 0.00 | 0.00 | 74 | 1012.4 |
| 20260504035004 | 43 | 253 | 0.0 | 0.0 | 0.00 | 0.00 | 0.00 | 73 | 1012.4 |
| 20260504034505 | 43 | 253 | 0.0 | 0.0 | 0.00 | 0.00 | 0.00 | 73 | 1012.3 |
| 20260504032504 | 44 | 253 | 0.0 | 0.0 | 0.00 | 0.00 | 0.00 | 71 | 1012.4 |
| 20260504032004 | 44 | 253 | 0.0 | 0.0 | 0.00 | 0.00 | 0.00 | 70 | 1012.3 |
| 20260504031504 | 44 | 253 | 0.0 | 0.0 | 0.00 | 0.00 | 0.00 | 70 | 1012.2 |
| 20260504031005 | 44 | 253 | 0.0 | 0.0 | 0.00 | 0.00 | 0.00 | 70 | 1012.2 |
| 20260504030504 | 45 | 253 | 0.0 | 0.0 | 0.00 | 0.00 | 0.00 | 69 | 1012.2 |
| 20260504025504 | 45 | 253 | 0.0 | 0.0 | 0.00 | 0.00 | 0.00 | 68 | 1012.3 |
| 20260504025005 | 45 | 253 | 0.0 | 0.0 | 0.00 | 0.00 | 0.00 | 68 | 1012.3 |
| 20260504024504 | 46 | 253 | 0.0 | 0.0 | 0.00 | 0.00 | 0.00 | 68 | 1012.2 |
| 20260504023504 | 46 | 253 | 0.0 | 0.0 | 0.00 | 0.00 | 0.00 | 67 | 1012.2 |
| 20260504023004 | 46 | 253 | 0.0 | 0.0 | 0.00 | 0.00 | 0.00 | 67 | 1012.2 |
| 20260504022004 | 47 | 253 | 0.9 | 1.7 | 0.00 | 0.00 | 0.00 | 66 | 1012.2 |
| 20260504021504 | 47 | 253 | 0.0 | 1.7 | 0.00 | 0.00 | 0.00 | 65 | 1012.1 |
| 20260504021004 | 48 | 253 | 0.0 | 1.7 | 0.00 | 0.00 | 0.00 | 64 | 1012.1 |
| 20260504020505 | 48 | 253 | 0.0 | 1.7 | 0.00 | 0.00 | 0.00 | 63 | 1012.1 |
| 20260504020004 | 49 | 253 | 0.0 | 0.0 | 0.00 | 0.00 | 0.00 | 62 | 1012.1 |
| 20260504015504 | 49 | 253 | 0.0 | 0.0 | 0.00 | 0.00 | 0.00 | 61 | 1012.1 |
| 20260504015004 | 49 | 253 | 0.0 | 0.9 | 0.00 | 0.00 | 0.00 | 61 | 1012.0 |
| 20260504014504 | 50 | 253 | 0.0 | 0.9 | 0.00 | 0.00 | 0.00 | 60 | 1012.0 |
| 20260504013504 | 51 | 253 | 0.0 | 0.0 | 0.00 | 0.00 | 0.00 | 59 | 1012.0 |
| 20260504013004 | 51 | 253 | 0.0 | 0.0 | 0.00 | 0.00 | 0.00 | 58 | 1012.0 |
| 20260504012004 | 52 | 253 | 0.0 | 0.0 | 0.00 | 0.00 | 0.00 | 55 | 1011.8 |
| 20260504011504 | 53 | 253 | 0.0 | 0.0 | 0.00 | 0.00 | 0.00 | 53 | 1011.8 |
| 20260504011004 | 53 | 253 | 0.0 | 0.0 | 0.00 | 0.00 | 0.00 | 52 | 1011.7 |
| 20260504010504 | 54 | 253 | 0.0 | 0.0 | 0.00 | 0.00 | 0.00 | 50 | 1011.7 |
| 20260504010004 | 54 | 253 | 0.0 | 0.0 | 0.00 | 0.00 | 0.00 | 49 | 1011.6 |
| 20260504005004 | 55 | 253 | 0.0 | 0.0 | 0.00 | 0.00 | 0.00 | 45 | 1011.5 |
| 20260504004504 | 55 | 253 | 0.0 | 0.0 | 0.00 | 0.00 | 0.00 | 44 | 1011.5 |
| 20260504004004 | 56 | 253 | 0.0 | 0.9 | 0.00 | 0.00 | 0.00 | 44 | 1011.4 |
| 20260504003504 | 56 | 253 | 0.0 | 1.7 | 0.00 | 0.00 | 0.00 | 43 | 1011.4 |
| 20260504002504 | 56 | 273 | 0.0 | 0.9 | 0.00 | 0.00 | 0.00 | 42 | 1011.2 |
| 20260504002004 | 57 | 273 | 0.0 | 2.6 | 0.00 | 0.00 | 0.00 | 42 | 1011.2 |
| 20260504001504 | 57 | 252 | 0.0 | 2.6 | 0.00 | 0.00 | 0.00 | 41 | 1011.2 |
| 20260504001004 | 57 | 288 | 1.7 | 6.1 | 0.00 | 0.00 | 0.00 | 40 | 1011.2 |
| 20260504000004 | 58 | 279 | 1.7 | 4.3 | 0.00 | 0.00 | 0.00 | 40 | 1011.2 |
| 20260503235504 | 58 | 233 | 0.9 | 1.7 | 0.00 | 0.00 | 0.00 | 39 | 1011.1 |
| 20260503233504 | 59 | 284 | 0.9 | 4.3 | 0.00 | 0.00 | 0.00 | 39 | 1011.0 |
| 20260503233004 | 59 | 255 | 4.3 | 7.0 | 0.00 | 0.00 | 0.00 | 38 | 1011.0 |
| 20260503232504 | 59 | 272 | 4.3 | 10.4 | 0.00 | 0.00 | 0.00 | 38 | 1011.0 |
| 20260503232003 | 59 | 252 | 1.7 | 4.3 | 0.00 | 0.00 | 0.00 | 38 | 1010.9 |
| 20260503231504 | 59 | 286 | 1.7 | 4.3 | 0.00 | 0.00 | 0.00 | 38 | 1010.9 |
| 20260503231004 | 60 | 280 | 2.6 | 7.0 | 0.00 | 0.00 | 0.00 | 37 | 1010.9 |
| 20260503230504 | 60 | 237 | 2.6 | 8.7 | 0.00 | 0.00 | 0.00 | 38 | 1010.9 |
| 20260503230004 | 60 | 285 | 4.3 | 8.7 | 0.00 | 0.00 | 0.00 | 37 | 1010.9 |
| 20260503225004 | 60 | 259 | 3.5 | 8.7 | 0.00 | 0.00 | 0.00 | 36 | 1010.9 |
| 20260503224503 | 60 | 295 | 3.5 | 7.8 | 0.00 | 0.00 | 0.00 | 37 | 1010.8 |
| 20260503224004 | 60 | 236 | 4.3 | 10.4 | 0.00 | 0.00 | 0.00 | 37 | 1010.9 |
| 20260503223504 | 60 | 256 | 2.6 | 7.8 | 0.00 | 0.00 | 0.00 | 36 | 1010.9 |
| 20260503223004 | 61 | 216 | 0.9 | 5.2 | 0.00 | 0.00 | 0.00 | 37 | 1010.9 |
| 20260503222504 | 61 | 274 | 1.7 | 10.4 | 0.00 | 0.00 | 0.00 | 37 | 1010.9 |
| 20260503221504 | 61 | 233 | 1.7 | 7.0 | 0.00 | 0.00 | 0.00 | 35 | 1010.9 |
| 20260503221004 | 62 | 262 | 4.3 | 7.8 | 0.00 | 0.00 | 0.00 | 35 | 1011.0 |
| 20260503220507 | 61 | 261 | 4.3 | 8.7 | 0.00 | 0.00 | 0.00 | 36 | 1011.1 |
| 20260503215004 | 61 | 225 | 3.5 | 8.7 | 0.00 | 0.00 | 0.00 | 35 | 1011.0 |
| 20260503214504 | 62 | 229 | 3.5 | 7.0 | 0.00 | 0.00 | 0.00 | 35 | 1010.9 |
| 20260503214004 | 61 | 310 | 3.5 | 7.8 | 0.00 | 0.00 | 0.00 | 37 | 1010.9 |
| 20260503213504 | 62 | 251 | 3.5 | 7.8 | 0.00 | 0.00 | 0.00 | 35 | 1010.9 |
| 20260503213004 | 62 | 280 | 3.5 | 8.7 | 0.00 | 0.00 | 0.00 | 35 | 1010.8 |
| 20260503211504 | 61 | 232 | 2.6 | 10.4 | 0.00 | 0.00 | 0.00 | 38 | 1010.7 |
| 20260503211004 | 60 | 284 | 4.3 | 10.4 | 0.00 | 0.00 | 0.00 | 36 | 1010.8 |
| 20260503210504 | 60 | 295 | 2.6 | 10.4 | 0.00 | 0.00 | 0.00 | 36 | 1010.8 |
| 20260503210004 | 61 | 267 | 5.2 | 12.2 | 0.00 | 0.00 | 0.00 | 36 | 1010.9 |
| 20260503205504 | 62 | 244 | 4.3 | 7.8 | 0.00 | 0.00 | 0.00 | 35 | 1010.8 |
| 20260503205004 | 62 | 220 | 3.5 | 7.8 | 0.00 | 0.00 | 0.00 | 37 | 1010.8 |
| 20260503204504 | 62 | 301 | 2.6 | 8.7 | 0.00 | 0.00 | 0.00 | 34 | 1010.8 |
| 20260503204005 | 63 | 237 | 5.2 | 12.2 | 0.00 | 0.00 | 0.00 | 35 | 1010.9 |
| 20260503203503 | 62 | 238 | 1.7 | 7.0 | 0.00 | 0.00 | 0.00 | 36 | 1010.9 |
| 20260503202504 | 62 | 281 | 3.5 | 8.7 | 0.00 | 0.00 | 0.00 | 36 | 1010.9 |
| 20260503202004 | 62 | 295 | 2.6 | 7.0 | 0.00 | 0.00 | 0.00 | 35 | 1010.9 |
| 20260503201504 | 62 | 253 | 4.3 | 10.4 | 0.00 | 0.00 | 0.00 | 37 | 1011.0 |
| 20260503201004 | 62 | 242 | 3.5 | 6.1 | 0.00 | 0.00 | 0.00 | 35 | 1011.1 |
| 20260503200504 | 62 | 261 | 5.2 | 11.3 | 0.00 | 0.00 | 0.00 | 36 | 1011.2 |
| 20260503200003 | 63 | 246 | 3.5 | 7.0 | 0.00 | 0.00 | 0.00 | 37 | 1011.1 |
| 20260503195503 | 62 | 289 | 2.6 | 10.4 | 0.00 | 0.00 | 0.00 | 35 | 1011.1 |
| 20260503194504 | 62 | 301 | 4.3 | 13.0 | 0.00 | 0.00 | 0.00 | 35 | 1011.3 |
| 20260503194004 | 62 | 282 | 4.3 | 13.0 | 0.00 | 0.00 | 0.00 | 36 | 1011.5 |
| 20260503192504 | 61 | 275 | 4.3 | 11.3 | 0.00 | 0.00 | 0.00 | 37 | 1011.6 |
| 20260503192004 | 61 | 261 | 7.8 | 12.2 | 0.00 | 0.00 | 0.00 | 34 | 1011.7 |
| 20260503191504 | 61 | 265 | 3.5 | 12.2 | 0.00 | 0.00 | 0.00 | 38 | 1011.6 |
| 20260503191004 | 60 | 244 | 4.3 | 11.3 | 0.00 | 0.00 | 0.00 | 37 | 1011.7 |
| 20260503190504 | 60 | 255 | 5.2 | 12.2 | 0.00 | 0.00 | 0.00 | 37 | 1011.8 |
| 20260503190004 | 60 | 261 | 4.3 | 12.2 | 0.00 | 0.00 | 0.00 | 36 | 1011.9 |
| 20260503185004 | 60 | 259 | 3.5 | 10.4 | 0.00 | 0.00 | 0.00 | 37 | 1012.0 |
| 20260503184004 | 60 | 255 | 3.5 | 7.8 | 0.00 | 0.00 | 0.00 | 38 | 1012.0 |
| 20260503183504 | 59 | 249 | 2.6 | 11.3 | 0.00 | 0.00 | 0.00 | 37 | 1012.0 |
| 20260503182504 | 59 | 269 | 5.2 | 10.4 | 0.00 | 0.00 | 0.00 | 37 | 1012.0 |
| 20260503182005 | 59 | 283 | 2.6 | 8.7 | 0.00 | 0.00 | 0.00 | 37 | 1012.1 |
| 20260503181505 | 59 | 255 | 4.3 | 7.8 | 0.00 | 0.00 | 0.00 | 37 | 1012.0 |
| 20260503181004 | 59 | 249 | 4.3 | 8.7 | 0.00 | 0.00 | 0.00 | 36 | 1012.1 |
| 20260503180004 | 58 | 274 | 4.3 | 7.8 | 0.00 | 0.00 | 0.00 | 38 | 1012.2 |
| 20260503175504 | 59 | 295 | 2.6 | 10.4 | 0.00 | 0.00 | 0.00 | 38 | 1012.2 |
| 20260503175004 | 59 | 277 | 2.6 | 6.1 | 0.00 | 0.00 | 0.00 | 37 | 1012.3 |
| 20260503174504 | 59 | 274 | 1.7 | 6.1 | 0.00 | 0.00 | 0.00 | 38 | 1012.4 |
| 20260503173504 | 59 | 348 | 2.6 | 6.1 | 0.00 | 0.00 | 0.00 | 38 | 1012.5 |
| 20260503173004 | 58 | 296 | 3.5 | 8.7 | 0.00 | 0.00 | 0.00 | 38 | 1012.6 |
| 20260503172504 | 58 | 273 | 2.6 | 6.1 | 0.00 | 0.00 | 0.00 | 40 | 1012.7 |
| 20260503172004 | 57 | 246 | 3.5 | 8.7 | 0.00 | 0.00 | 0.00 | 39 | 1012.7 |
| 20260503171504 | 57 | 323 | 2.6 | 8.7 | 0.00 | 0.00 | 0.00 | 40 | 1012.7 |
| 20260503171004 | 56 | 286 | 5.2 | 10.4 | 0.00 | 0.00 | 0.00 | 40 | 1013.0 |
| 20260503170504 | 56 | 275 | 5.2 | 10.4 | 0.00 | 0.00 | 0.00 | 40 | 1013.0 |
| 20260503151004 | 53 | 245 | 2.6 | 13.0 | 0.00 | 0.00 | 0.00 | 44 | 1014.3 |
| 20260503131004 | 47 | 275 | 1.7 | 5.2 | 0.00 | 0.00 | 0.00 | 53 | 1015.0 |
| 20260503130504 | 47 | 248 | 2.6 | 8.7 | 0.00 | 0.00 | 0.00 | 53 | 1015.1 |
| 20260503110504 | 39 | 234 | 0.9 | 2.6 | 0.00 | 0.00 | 0.00 | 74 | 1014.8 |
| 20260503090504 | 39 | 254 | 0.0 | 2.6 | 0.00 | 0.00 | 0.00 | 73 | 1014.0 |
| 20260503081004 | 40 | 313 | 0.0 | 0.0 | 0.00 | 0.00 | 0.00 | 73 | 1013.7 |
| 20260503080504 | 40 | 313 | 0.0 | 0.0 | 0.00 | 0.00 | 0.00 | 73 | 1013.7 |
| 20260503072504 | 41 | 311 | 0.0 | 0.0 | 0.00 | 0.00 | 0.00 | 71 | 1013.4 |
| 20260503071004 | 41 | 281 | 0.0 | 1.7 | 0.00 | 0.00 | 0.00 | 71 | 1013.6 |
| 20260503070504 | 41 | 281 | 0.9 | 1.7 | 0.00 | 0.00 | 0.00 | 70 | 1013.4 |
| 20260503055004 | 43 | 5 | 0.0 | 0.9 | 0.00 | 0.01 | 0.00 | 66 | 1013.5 |
| 20260503054504 | 44 | 328 | 0.0 | 0.9 | 0.00 | 0.01 | 0.00 | 66 | 1013.5 |
| 20260503054004 | 44 | 323 | 0.0 | 0.0 | 0.00 | 0.01 | 0.00 | 66 | 1013.6 |